Location: Dumbr?vi?a
(45.8833°N, 22.7000°E)
Time: 14:30:16
(UTC+00:00)

Cosmos 2154 Rocket - Pass Details

Date: 03 March 2021
Orbit: 966 x 996 km, 82.9° (Epoch: 11 April)

Event Time Altitude Azimuth Distance (km) Brightness Sun altitude
Rises 17:33:36 0° 192° (SSW) 3,657 7.1 -13.8°
Reaches altitude 10° 17:36:07 10° 194° (SSW) 2,710 6.4 -14.3°
Maximum altitude 17:42:19 75° 279° (W) 1,007 4.2 -15.3°
Drops below altitude 10° 17:48:32 10° 5° (N) 2,717 6.4 -16.4°
Sets 17:51:04 0° 8° (N) 3,668 7.0 -16.8°
